Cross City, FL

5:38 PM EST on February 24, 2017 (GMT -0500)
Cross City

Weather History for KCTY - March, 2012

Change the Weather History Date:

Monday, March 5, 2012

  Actual Average Record
Temperature  
Mean Temperature 54 °F 60 °F  
Max Temperature 72 °F 74 °F 81 °F (2015)
Min Temperature 35 °F 46 °F 28 °F (2002)
Degree Days  
Heating Degree Days 12 6  
Month to date heating degree days 32  
Since 1 July heating degree days 1152  
Cooling Degree Days 0 1  
Month to date cooling degree days 5  
Year to date cooling degree days 32  
Growing Degree Days 4 (Base 50)    
Moisture  
Dew Point 42 °F    
Average Humidity 70    
Maximum Humidity 93    
Minimum Humidity 33    
Precipitation  
Precipitation 0.00 in 0.13 in 0.65 in (2014)
Month to date precipitation 0.62  
Year to date precipitation 7.93  
Sea Level Pressure  
Sea Level Pressure 30.31 in    
Wind  
Wind Speed 3 mph (West)    
Max Wind Speed 18 mph    
Max Gust Speed 24 mph    
T = Trace of Precipitation, MM = Missing Value Source: NWS Daily Summary

Daily Weather History Graph

Daily Weather History Graph

Search for Another Location

Airport or City:

Trip Planner

Search our weather history database for the weather conditions in past years. The results will help you decide how hot, cold, wet, or windy it might be!

Date:

Astronomy

Mar. 05, 2012 Rise Set
Actual Time 6:53 AM EST 6:34 PM EST
Civil Twilight 6:29 AM EST 6:58 PM EST
Nautical Twilight 6:01 AM EST 7:26 PM EST
Astronomical Twilight 5:34 AM EST 7:53 PM EST
Moon 4:01 PM EST (3/5) 4:40 AM EST (3/5)
Length of Visible Light 12h 29m
Length of Day
11h 41m
Waxing Gibbous, 91% of the Moon is Illuminated
Mar 5
Waxing Gibbous
Mar 8
Full
Mar 14
Last Quarter
Mar 22
New
Mar 30
First Quarter

Hourly Weather History & Observations

Time (EST) Temp. Dew Point Humidity Pressure Visibility Wind Dir Wind Speed Gust Speed Precip Events Conditions
12:53 AM 37.0 °F 35.1 °F 93% 30.24 in - Calm Calm - N/A   Unknown
1:53 AM 36.0 °F 34.0 °F 93% 30.25 in - Calm Calm - N/A   Unknown
2:53 AM 36.0 °F 34.0 °F 93% 30.25 in - Calm Calm - N/A   Unknown
3:53 AM 35.1 °F 33.1 °F 92% 30.27 in - Calm Calm - N/A   Unknown
4:53 AM 35.1 °F 33.1 °F 92% 30.29 in - Calm Calm - N/A   Unknown
5:53 AM 36.0 °F 33.1 °F 89% 30.30 in - Calm Calm - N/A   Unknown
6:53 AM 36.0 °F 34.0 °F 93% 30.32 in - Calm Calm - N/A   Unknown
7:53 AM 42.1 °F 39.0 °F 89% 30.34 in - Calm Calm - N/A   Unknown
8:53 AM 55.9 °F 45.0 °F 67% 30.35 in - Calm Calm - N/A   Unknown
9:53 AM 64.9 °F 45.0 °F 48% 30.35 in - West 10.4 mph - N/A   Unknown
10:53 AM 69.1 °F 41.0 °F 36% 30.35 in - West 12.7 mph 17.3 mph N/A   Unknown
11:53 AM 71.1 °F 41.0 °F 34% 30.35 in - West 11.5 mph 20.7 mph N/A   Unknown
12:53 PM 72.0 °F 41.0 °F 33% 30.33 in - West 18.4 mph 24.2 mph N/A   Unknown
1:53 PM 72.0 °F 44.1 °F 37% 30.30 in - West 10.4 mph 18.4 mph N/A   Unknown
2:53 PM 71.1 °F 44.1 °F 38% 30.28 in - West 12.7 mph - N/A   Unknown
3:53 PM 71.1 °F 46.0 °F 41% 30.27 in - West 13.8 mph 19.6 mph N/A   Unknown
4:53 PM 69.1 °F 46.9 °F 45% 30.27 in - WSW 10.4 mph - N/A   Unknown
5:53 PM 66.9 °F 48.9 °F 52% 30.29 in - West 8.1 mph - N/A   Unknown
6:53 PM 62.1 °F 50.0 °F 65% 30.31 in - WSW 3.5 mph - N/A   Unknown
7:53 PM 57.0 °F 51.1 °F 81% 30.33 in - Calm Calm - N/A   Unknown
8:53 PM 52.0 °F 48.9 °F 89% 30.35 in - Calm Calm - N/A   Unknown
9:53 PM 50.0 °F 46.9 °F 89% 30.37 in - Calm Calm - N/A   Unknown
10:53 PM 46.9 °F 45.0 °F 93% 30.38 in - Calm Calm - N/A   Unknown
11:53 PM 45.0 °F 43.0 °F 93% 30.38 in - Calm Calm - N/A   Unknown